owner,sensor,date,latitude,longitude,vertical_datum,mass_concentration_of_oxygen_in_sea_water,qcFlag 
DISL,ioos:station:DISL:DISL:1,2014-07-01T00:00:00Z,30.2513,-88.0778,1.877,6.87,1111122 
DISL,ioos:station:DISL:DISL:1,2014-07-01T00:30:00Z,30.2513,-88.0778,1.867,6.5,1111122 
DISL,ioos:station:DISL:DISL:1,2014-07-01T01:00:00Z,30.2513,-88.0778,1.854,6.76,1111122 
DISL,ioos:station:DISL:DISL:1,2014-07-01T01:30:00Z,30.2513,-88.0778,1.841,6.27,1111122 
DISL,ioos:station:DISL:DISL:1,2014-07-01T02:00:00Z,30.2513,-88.0778,1.831,5.79,1111122 
DISL,ioos:station:DISL:DISL:1,2014-07-01T02:30:00Z,30.2513,-88.0778,1.812,5.36,1111122 
DISL,ioos:station:DISL:DISL:1,2014-07-01T03:00:00Z,30.2513,-88.0778,1.807,5.17,1111122 
DISL,ioos:station:DISL:DISL:1,2014-07-01T03:30:00Z,30.2513,-88.0778,1.807,4.89,1111122 
DISL,ioos:station:DISL:DISL:1,2014-07-01T04:00:00Z,30.2513,-88.0778,1.795,5.1,1111122 
DISL,ioos:station:DISL:DISL:1,2014-07-01T04:30:00Z,30.2513,-88.0778,1.781,4.41,1111122 
DISL,ioos:station:DISL:DISL:1,2014-07-01T05:00:00Z,30.2513,-88.0778,1.778,4.17,1111122 
DISL,ioos:station:DISL:DISL:1,2014-07-01T05:30:00Z,30.2513,-88.0778,1.792,3.53,1111122 
DISL,ioos:station:DISL:DISL:1,2014-07-01T06:00:00Z,30.2513,-88.0778,1.794,4.17,1111122 
DISL,ioos:station:DISL:DISL:1,2014-07-01T06:30:00Z,30.2513,-88.0778,1.817,4.09,1111122 
DISL,ioos:station:DISL:DISL:1,2014-07-01T07:00:00Z,30.2513,-88.0778,1.789,5.04,1111122 
DISL,ioos:station:DISL:DISL:1,2014-07-01T07:30:00Z,30.2513,-88.0778,1.83,4.93,1111122 
DISL,ioos:station:DISL:DISL:1,2014-07-01T08:00:00Z,30.2513,-88.0778,1.828,5.75,1111122 
DISL,ioos:station:DISL:DISL:1,2014-07-01T08:30:00Z,30.2513,-88.0778,1.851,5.25,1111122 
DISL,ioos:station:DISL:DISL:1,2014-07-01T09:00:00Z,30.2513,-88.0778,1.871,5.08,1111122 
DISL,ioos:station:DISL:DISL:1,2014-07-01T09:30:00Z,30.2513,-88.0778,1.889,5.1,1111122 
DISL,ioos:station:DISL:DISL:1,2014-07-01T10:00:00Z,30.2513,-88.0778,1.915,4.89,1111122 
DISL,ioos:station:DISL:DISL:1,2014-07-01T10:30:00Z,30.2513,-88.0778,1.934,4.34,1111122 
DISL,ioos:station:DISL:DISL:1,2014-07-01T11:00:00Z,30.2513,-88.0778,1.928,4.73,1111122 
DISL,ioos:station:DISL:DISL:1,2014-07-01T11:30:00Z,30.2513,-88.0778,1.955,4.83,1111122 
DISL,ioos:station:DISL:DISL:1,2014-07-01T12:00:00Z,30.2513,-88.0778,1.935,5.21,1111122 
DISL,ioos:station:DISL:DISL:1,2014-07-01T12:30:00Z,30.2513,-88.0778,1.963,5.28,1111122 
DISL,ioos:station:DISL:DISL:1,2014-07-01T13:00:00Z,30.2513,-88.0778,1.97,5.38,1111122 
DISL,ioos:station:DISL:DISL:1,2014-07-01T13:30:00Z,30.2513,-88.0778,2.006,5.37,1111122 
DISL,ioos:station:DISL:DISL:1,2014-07-01T14:00:00Z,30.2513,-88.0778,2.012,5.41,1111122 
DISL,ioos:station:DISL:DISL:1,2014-07-01T14:30:00Z,30.2513,-88.0778,2.01,5.25,1111122 
DISL,ioos:station:DISL:DISL:1,2014-07-01T15:00:00Z,30.2513,-88.0778,1.992,5.45,1111122 
DISL,ioos:station:DISL:DISL:1,2014-07-01T15:30:00Z,30.2513,-88.0778,2.028,5.58,1111122 
DISL,ioos:station:DISL:DISL:1,2014-07-01T16:00:00Z,30.2513,-88.0778,2.038,5.62,1111122 
DISL,ioos:station:DISL:DISL:1,2014-07-01T16:30:00Z,30.2513,-88.0778,2.045,5.84,1111122 
DISL,ioos:station:DISL:DISL:1,2014-07-01T17:00:00Z,30.2513,-88.0778,2.065,5.78,1111122 
DISL,ioos:station:DISL:DISL:1,2014-07-01T17:30:00Z,30.2513,-88.0778,2.046,6.08,1111122 
DISL,ioos:station:DISL:DISL:1,2014-07-01T18:00:00Z,30.2513,-88.0778,2.036,6.16,1111122 
DISL,ioos:station:DISL:DISL:1,2014-07-01T18:30:00Z,30.2513,-88.0778,2.038,6.45,1111122 
DISL,ioos:station:DISL:DISL:1,2014-07-01T19:00:00Z,30.2513,-88.0778,2.036,6.65,1111122 
DISL,ioos:station:DISL:DISL:1,2014-07-01T19:30:00Z,30.2513,-88.0778,2.015,6.59,1111122 
DISL,ioos:station:DISL:DISL:1,2014-07-01T20:00:00Z,30.2513,-88.0778,2.03,6.57,1111122 
DISL,ioos:station:DISL:DISL:1,2014-07-01T20:30:00Z,30.2513,-88.0778,2.004,6.76,1111122 
DISL,ioos:station:DISL:DISL:1,2014-07-01T21:00:00Z,30.2513,-88.0778,2.001,6.79,1111122 
DISL,ioos:station:DISL:DISL:1,2014-07-01T21:30:00Z,30.2513,-88.0778,1.975,6.97,1111122 
DISL,ioos:station:DISL:DISL:1,2014-07-01T22:00:00Z,30.2513,-88.0778,1.964,7.38,1111122 
DISL,ioos:station:DISL:DISL:1,2014-07-01T22:30:00Z,30.2513,-88.0778,1.898,7.23,1111122 
DISL,ioos:station:DISL:DISL:1,2014-07-01T23:00:00Z,30.2513,-88.0778,1.907,7.72,1111122 
DISL,ioos:station:DISL:DISL:1,2014-07-01T23:30:00Z,30.2513,-88.0778,1.916,7.85,1111122 
DISL,ioos:station:DISL:DISL:1,2014-07-02T00:00:00Z,30.2513,-88.0778,1.875,7.88,1111122 
DISL,ioos:station:DISL:DISL:1,2014-07-02T00:30:00Z,30.2513,-88.0778,1.879,7.09,1111122 
DISL,ioos:station:DISL:DISL:1,2014-07-02T01:00:00Z,30.2513,-88.0778,1.854,7.42,1111122 
DISL,ioos:station:DISL:DISL:1,2014-07-02T01:30:00Z,30.2513,-88.0778,1.854,7.64,1111122 
DISL,ioos:station:DISL:DISL:1,2014-07-02T02:00:00Z,30.2513,-88.0778,1.847,7.03,1111122 
DISL,ioos:station:DISL:DISL:1,2014-07-02T02:30:00Z,30.2513,-88.0778,1.848,7.03,1111122 
DISL,ioos:station:DISL:DISL:1,2014-07-02T03:00:00Z,30.2513,-88.0778,1.837,7.92,1111122 
DISL,ioos:station:DISL:DISL:1,2014-07-02T03:30:00Z,30.2513,-88.0778,1.85,7.4,1111122 
DISL,ioos:station:DISL:DISL:1,2014-07-02T04:00:00Z,30.2513,-88.0778,1.835,6.67,1111122 
DISL,ioos:station:DISL:DISL:1,2014-07-02T04:30:00Z,30.2513,-88.0778,1.842,7.01,1111122 
DISL,ioos:station:DISL:DISL:1,2014-07-02T05:00:00Z,30.2513,-88.0778,1.852,7.27,1111122 
DISL,ioos:station:DISL:DISL:1,2014-07-02T05:30:00Z,30.2513,-88.0778,1.855,6.78,1111122 
DISL,ioos:station:DISL:DISL:1,2014-07-02T06:00:00Z,30.2513,-88.0778,1.867,6.27,1111122 
DISL,ioos:station:DISL:DISL:1,2014-07-02T06:30:00Z,30.2513,-88.0778,1.865,6.39,1111122 
DISL,ioos:station:DISL:DISL:1,2014-07-02T07:00:00Z,30.2513,-88.0778,1.874,6.11,1111122 
DISL,ioos:station:DISL:DISL:1,2014-07-02T07:30:00Z,30.2513,-88.0778,1.865,6.39,1111122 
DISL,ioos:station:DISL:DISL:1,2014-07-02T08:00:00Z,30.2513,-88.0778,1.887,5.87,1111122 
DISL,ioos:station:DISL:DISL:1,2014-07-02T08:30:00Z,30.2513,-88.0778,1.897,5.82,1111122 
DISL,ioos:station:DISL:DISL:1,2014-07-02T09:00:00Z,30.2513,-88.0778,1.889,6.35,1111122 
DISL,ioos:station:DISL:DISL:1,2014-07-02T09:30:00Z,30.2513,-88.0778,1.916,6.07,1111122 
DISL,ioos:station:DISL:DISL:1,2014-07-02T10:00:00Z,30.2513,-88.0778,1.908,5.69,1111122 
DISL,ioos:station:DISL:DISL:1,2014-07-02T10:30:00Z,30.2513,-88.0778,1.925,5.46,1111122 
DISL,ioos:station:DISL:DISL:1,2014-07-02T11:00:00Z,30.2513,-88.0778,1.94,5.27,1111122 
DISL,ioos:station:DISL:DISL:1,2014-07-02T11:30:00Z,30.2513,-88.0778,1.954,5.44,1111122 
DISL,ioos:station:DISL:DISL:1,2014-07-02T12:00:00Z,30.2513,-88.0778,1.945,5.42,1111122 
DISL,ioos:station:DISL:DISL:1,2014-07-02T12:30:00Z,30.2513,-88.0778,1.961,5.27,1111122 
DISL,ioos:station:DISL:DISL:1,2014-07-02T13:00:00Z,30.2513,-88.0778,1.969,5.26,1111122 
DISL,ioos:station:DISL:DISL:1,2014-07-02T13:30:00Z,30.2513,-88.0778,1.976,5.7,1111122 
DISL,ioos:station:DISL:DISL:1,2014-07-02T14:00:00Z,30.2513,-88.0778,1.998,5.65,1111122 
DISL,ioos:station:DISL:DISL:1,2014-07-02T14:30:00Z,30.2513,-88.0778,2.005,5.52,1111122 
DISL,ioos:station:DISL:DISL:1,2014-07-02T15:00:00Z,30.2513,-88.0778,2.014,5.06,1111122 
DISL,ioos:station:DISL:DISL:1,2014-07-02T15:30:00Z,30.2513,-88.0778,2.024,5.12,1111122 
DISL,ioos:station:DISL:DISL:1,2014-07-02T16:00:00Z,30.2513,-88.0778,2.045,5.35,1111122 
DISL,ioos:station:DISL:DISL:1,2014-07-02T16:30:00Z,30.2513,-88.0778,2.051,4.65,1111122 
DISL,ioos:station:DISL:DISL:1,2014-07-02T17:00:00Z,30.2513,-88.0778,2.046,4.45,1111122 
DISL,ioos:station:DISL:DISL:1,2014-07-02T17:30:00Z,30.2513,-88.0778,2.058,5.28,1111122 
DISL,ioos:station:DISL:DISL:1,2014-07-02T18:00:00Z,30.2513,-88.0778,2.046,5.73,1111122 
DISL,ioos:station:DISL:DISL:1,2014-07-02T18:30:00Z,30.2513,-88.0778,2.036,6.34,1111122 
DISL,ioos:station:DISL:DISL:1,2014-07-02T19:00:00Z,30.2513,-88.0778,2.034,6.91,1111122 
DISL,ioos:station:DISL:DISL:1,2014-07-02T19:30:00Z,30.2513,-88.0778,2.048,7.02,1111122 
DISL,ioos:station:DISL:DISL:1,2014-07-02T20:00:00Z,30.2513,-88.0778,2.047,6.84,1111122 
DISL,ioos:station:DISL:DISL:1,2014-07-02T20:30:00Z,30.2513,-88.0778,2.015,6.73,1111122 
DISL,ioos:station:DISL:DISL:1,2014-07-02T21:00:00Z,30.2513,-88.0778,2.007,7.05,1111122 
DISL,ioos:station:DISL:DISL:1,2014-07-02T21:30:00Z,30.2513,-88.0778,1.983,6.9,1111122 
DISL,ioos:station:DISL:DISL:1,2014-07-02T22:00:00Z,30.2513,-88.0778,1.976,6.62,1111122 
DISL,ioos:station:DISL:DISL:1,2014-07-02T22:30:00Z,30.2513,-88.0778,1.957,6.87,1111122 
DISL,ioos:station:DISL:DISL:1,2014-07-02T23:00:00Z,30.2513,-88.0778,1.944,7.36,1111122 
DISL,ioos:station:DISL:DISL:1,2014-07-02T23:30:00Z,30.2513,-88.0778,1.942,7.81,1111122 
DISL,ioos:station:DISL:DISL:1,2014-07-03T00:00:00Z,30.2513,-88.0778,1.921,7.67,1111122 
DISL,ioos:station:DISL:DISL:1,2014-07-03T00:30:00Z,30.2513,-88.0778,1.898,7.4,1111122 
DISL,ioos:station:DISL:DISL:1,2014-07-03T01:00:00Z,30.2513,-88.0778,1.872,7.19,1111122 
DISL,ioos:station:DISL:DISL:1,2014-07-03T01:30:00Z,30.2513,-88.0778,1.886,7.48,1111122 
DISL,ioos:station:DISL:DISL:1,2014-07-03T02:00:00Z,30.2513,-88.0778,1.888,7.26,1111122 
DISL,ioos:station:DISL:DISL:1,2014-07-03T02:30:00Z,30.2513,-88.0778,1.869,7.28,1111122 
DISL,ioos:station:DISL:DISL:1,2014-07-03T03:00:00Z,30.2513,-88.0778,1.85,7.42,1111122 
DISL,ioos:station:DISL:DISL:1,2014-07-03T03:30:00Z,30.2513,-88.0778,1.857,7.18,1111122 
DISL,ioos:station:DISL:DISL:1,2014-07-03T04:00:00Z,30.2513,-88.0778,1.859,7.24,1111122 
DISL,ioos:station:DISL:DISL:1,2014-07-03T04:30:00Z,30.2513,-88.0778,1.856,7.12,1111122 
DISL,ioos:station:DISL:DISL:1,2014-07-03T05:00:00Z,30.2513,-88.0778,1.877,7.14,1111122 
DISL,ioos:station:DISL:DISL:1,2014-07-03T05:30:00Z,30.2513,-88.0778,1.863,7.37,1111122 
DISL,ioos:station:DISL:DISL:1,2014-07-03T06:00:00Z,30.2513,-88.0778,1.882,7.31,1111122 
DISL,ioos:station:DISL:DISL:1,2014-07-03T06:30:00Z,30.2513,-88.0778,1.855,7.06,1111122 
DISL,ioos:station:DISL:DISL:1,2014-07-03T07:00:00Z,30.2513,-88.0778,1.802,6.68,1111122 
DISL,ioos:station:DISL:DISL:1,2014-07-03T07:30:00Z,30.2513,-88.0778,1.852,6.8,1111122 
DISL,ioos:station:DISL:DISL:1,2014-07-03T08:00:00Z,30.2513,-88.0778,1.82,6.92,1111122 
DISL,ioos:station:DISL:DISL:1,2014-07-03T08:30:00Z,30.2513,-88.0778,1.893,6.76,1111122 
DISL,ioos:station:DISL:DISL:1,2014-07-03T09:00:00Z,30.2513,-88.0778,1.883,6.56,1111122 
DISL,ioos:station:DISL:DISL:1,2014-07-03T09:30:00Z,30.2513,-88.0778,1.867,6.11,1111122 
DISL,ioos:station:DISL:DISL:1,2014-07-03T10:00:00Z,30.2513,-88.0778,1.905,6.07,1111122 
DISL,ioos:station:DISL:DISL:1,2014-07-03T10:30:00Z,30.2513,-88.0778,1.907,6.14,1111122 
DISL,ioos:station:DISL:DISL:1,2014-07-03T11:00:00Z,30.2513,-88.0778,1.926,6.52,1111122 
DISL,ioos:station:DISL:DISL:1,2014-07-03T11:30:00Z,30.2513,-88.0778,1.987,6.29,1111122 
DISL,ioos:station:DISL:DISL:1,2014-07-03T12:00:00Z,30.2513,-88.0778,1.977,6.1,1111122 
DISL,ioos:station:DISL:DISL:1,2014-07-03T12:30:00Z,30.2513,-88.0778,1.974,4.67,1111122 
DISL,ioos:station:DISL:DISL:1,2014-07-03T13:00:00Z,30.2513,-88.0778,1.985,5.06,1111122 
DISL,ioos:station:DISL:DISL:1,2014-07-03T13:30:00Z,30.2513,-88.0778,1.974,5.75,1111122 
DISL,ioos:station:DISL:DISL:1,2014-07-03T14:00:00Z,30.2513,-88.0778,1.985,5.86,1111122 
DISL,ioos:station:DISL:DISL:1,2014-07-03T14:30:00Z,30.2513,-88.0778,2.06,5.78,1111122 
DISL,ioos:station:DISL:DISL:1,2014-07-03T15:00:00Z,30.2513,-88.0778,2.011,6.89,1111122 
DISL,ioos:station:DISL:DISL:1,2014-07-03T15:30:00Z,30.2513,-88.0778,2.052,6.97,1111122 
DISL,ioos:station:DISL:DISL:1,2014-07-03T16:00:00Z,30.2513,-88.0778,1.979,7.03,1111122 
DISL,ioos:station:DISL:DISL:1,2014-07-03T16:30:00Z,30.2513,-88.0778,2.034,7.01,1111122 
DISL,ioos:station:DISL:DISL:1,2014-07-03T17:00:00Z,30.2513,-88.0778,2.018,6.91,1111122 
DISL,ioos:station:DISL:DISL:1,2014-07-03T17:30:00Z,30.2513,-88.0778,2.033,6.71,1111122 
DISL,ioos:station:DISL:DISL:1,2014-07-03T18:00:00Z,30.2513,-88.0778,2.051,6.82,1111122 
DISL,ioos:station:DISL:DISL:1,2014-07-03T18:30:00Z,30.2513,-88.0778,1.997,6.8,1111122 
DISL,ioos:station:DISL:DISL:1,2014-07-03T19:00:00Z,30.2513,-88.0778,2.016,6.99,1111122 
DISL,ioos:station:DISL:DISL:1,2014-07-03T19:30:00Z,30.2513,-88.0778,1.992,5.47,1111122 
DISL,ioos:station:DISL:DISL:1,2014-07-03T20:00:00Z,30.2513,-88.0778,2.023,6.1,1111122 
DISL,ioos:station:DISL:DISL:1,2014-07-03T20:30:00Z,30.2513,-88.0778,2.014,6.52,1111122 
DISL,ioos:station:DISL:DISL:1,2014-07-03T21:00:00Z,30.2513,-88.0778,1.997,6.47,1111122 
DISL,ioos:station:DISL:DISL:1,2014-07-03T21:30:00Z,30.2513,-88.0778,2.011,7.22,1111122 
DISL,ioos:station:DISL:DISL:1,2014-07-03T22:00:00Z,30.2513,-88.0778,1.995,6.86,1111122 
DISL,ioos:station:DISL:DISL:1,2014-07-03T22:30:00Z,30.2513,-88.0778,1.993,7.33,1111122 
DISL,ioos:station:DISL:DISL:1,2014-07-03T23:00:00Z,30.2513,-88.0778,1.963,6.57,1111122 
DISL,ioos:station:DISL:DISL:1,2014-07-03T23:30:00Z,30.2513,-88.0778,1.953,6.77,1111122 
DISL,ioos:station:DISL:DISL:1,2014-07-04T00:00:00Z,30.2513,-88.0778,1.944,6.66,1111122 
DISL,ioos:station:DISL:DISL:1,2014-07-04T00:30:00Z,30.2513,-88.0778,1.936,7.02,1111122 
DISL,ioos:station:DISL:DISL:1,2014-07-04T01:00:00Z,30.2513,-88.0778,1.895,7.0,1111122 
DISL,ioos:station:DISL:DISL:1,2014-07-04T01:30:00Z,30.2513,-88.0778,1.91,6.87,1111122 
DISL,ioos:station:DISL:DISL:1,2014-07-04T02:00:00Z,30.2513,-88.0778,1.899,7.29,1111122 
DISL,ioos:station:DISL:DISL:1,2014-07-04T02:30:00Z,30.2513,-88.0778,1.899,7.38,1111122 
DISL,ioos:station:DISL:DISL:1,2014-07-04T03:00:00Z,30.2513,-88.0778,1.901,7.19,1111122 
DISL,ioos:station:DISL:DISL:1,2014-07-04T03:30:00Z,30.2513,-88.0778,1.9,7.19,1111122 
DISL,ioos:station:DISL:DISL:1,2014-07-04T04:00:00Z,30.2513,-88.0778,1.894,7.02,1111122 
DISL,ioos:station:DISL:DISL:1,2014-07-04T04:30:00Z,30.2513,-88.0778,1.893,7.61,1111122 
DISL,ioos:station:DISL:DISL:1,2014-07-04T05:00:00Z,30.2513,-88.0778,1.902,7.88,1111122 
DISL,ioos:station:DISL:DISL:1,2014-07-04T05:30:00Z,30.2513,-88.0778,1.887,7.86,1111122 
DISL,ioos:station:DISL:DISL:1,2014-07-04T06:00:00Z,30.2513,-88.0778,1.918,6.55,1111122 
DISL,ioos:station:DISL:DISL:1,2014-07-04T06:30:00Z,30.2513,-88.0778,1.917,6.59,1111122 
DISL,ioos:station:DISL:DISL:1,2014-07-04T07:00:00Z,30.2513,-88.0778,1.923,6.48,1111122 
DISL,ioos:station:DISL:DISL:1,2014-07-04T07:30:00Z,30.2513,-88.0778,1.932,6.49,1111122 
DISL,ioos:station:DISL:DISL:1,2014-07-04T08:00:00Z,30.2513,-88.0778,1.95,6.34,1111122 
DISL,ioos:station:DISL:DISL:1,2014-07-04T08:30:00Z,30.2513,-88.0778,1.954,6.57,1111122 
DISL,ioos:station:DISL:DISL:1,2014-07-04T09:00:00Z,30.2513,-88.0778,1.961,6.61,1111122 
DISL,ioos:station:DISL:DISL:1,2014-07-04T09:30:00Z,30.2513,-88.0778,1.948,6.67,1111122 
DISL,ioos:station:DISL:DISL:1,2014-07-04T10:00:00Z,30.2513,-88.0778,1.97,6.58,1111122 
DISL,ioos:station:DISL:DISL:1,2014-07-04T10:30:00Z,30.2513,-88.0778,1.964,5.28,1111122 
DISL,ioos:station:DISL:DISL:1,2014-07-04T11:00:00Z,30.2513,-88.0778,1.966,5.59,1111122 
DISL,ioos:station:DISL:DISL:1,2014-07-04T11:30:00Z,30.2513,-88.0778,1.953,5.31,1111122 
DISL,ioos:station:DISL:DISL:1,2014-07-04T12:00:00Z,30.2513,-88.0778,1.954,6.25,1111122 
DISL,ioos:station:DISL:DISL:1,2014-07-04T12:30:00Z,30.2513,-88.0778,1.98,6.45,1111122 
DISL,ioos:station:DISL:DISL:1,2014-07-04T13:00:00Z,30.2513,-88.0778,1.962,6.79,1111122 
DISL,ioos:station:DISL:DISL:1,2014-07-04T13:30:00Z,30.2513,-88.0778,1.946,6.93,1111122 
DISL,ioos:station:DISL:DISL:1,2014-07-04T14:00:00Z,30.2513,-88.0778,1.939,6.93,1111122 
DISL,ioos:station:DISL:DISL:1,2014-07-04T14:30:00Z,30.2513,-88.0778,1.919,6.83,1111122 
DISL,ioos:station:DISL:DISL:1,2014-07-04T15:00:00Z,30.2513,-88.0778,1.932,7.11,1111122 
DISL,ioos:station:DISL:DISL:1,2014-07-04T15:30:00Z,30.2513,-88.0778,1.931,7.16,1111122 
DISL,ioos:station:DISL:DISL:1,2014-07-04T16:00:00Z,30.2513,-88.0778,1.942,7.3,1111122 
DISL,ioos:station:DISL:DISL:1,2014-07-04T16:30:00Z,30.2513,-88.0778,1.929,7.33,1111122 
DISL,ioos:station:DISL:DISL:1,2014-07-04T17:00:00Z,30.2513,-88.0778,1.919,7.33,1111122 
DISL,ioos:station:DISL:DISL:1,2014-07-04T17:30:00Z,30.2513,-88.0778,1.926,7.4,1111122 
DISL,ioos:station:DISL:DISL:1,2014-07-04T18:00:00Z,30.2513,-88.0778,1.933,7.6,1111122 
DISL,ioos:station:DISL:DISL:1,2014-07-04T18:30:00Z,30.2513,-88.0778,1.936,6.86,1111122 
DISL,ioos:station:DISL:DISL:1,2014-07-04T19:00:00Z,30.2513,-88.0778,1.912,7.83,1111122 
DISL,ioos:station:DISL:DISL:1,2014-07-04T19:30:00Z,30.2513,-88.0778,1.921,7.5,1111122 
DISL,ioos:station:DISL:DISL:1,2014-07-04T20:00:00Z,30.2513,-88.0778,1.905,7.94,1111122 
DISL,ioos:station:DISL:DISL:1,2014-07-04T20:30:00Z,30.2513,-88.0778,1.906,7.97,1111122 
DISL,ioos:station:DISL:DISL:1,2014-07-04T21:00:00Z,30.2513,-88.0778,1.891,7.89,1111122 
DISL,ioos:station:DISL:DISL:1,2014-07-04T21:30:00Z,30.2513,-88.0778,1.892,8.18,1111122 
DISL,ioos:station:DISL:DISL:1,2014-07-04T22:00:00Z,30.2513,-88.0778,1.901,9.27,1111122 
DISL,ioos:station:DISL:DISL:1,2014-07-04T22:30:00Z,30.2513,-88.0778,1.897,8.85,1111122 
DISL,ioos:station:DISL:DISL:1,2014-07-04T23:00:00Z,30.2513,-88.0778,1.862,9.08,1111122 
DISL,ioos:station:DISL:DISL:1,2014-07-04T23:30:00Z,30.2513,-88.0778,1.871,8.2,1111122 
DISL,ioos:station:DISL:DISL:1,2014-07-05T00:00:00Z,30.2513,-88.0778,1.868,8.06,1111122 
DISL,ioos:station:DISL:DISL:1,2014-07-05T00:30:00Z,30.2513,-88.0778,1.851,8.17,1111122 
DISL,ioos:station:DISL:DISL:1,2014-07-05T01:00:00Z,30.2513,-88.0778,1.855,7.94,1111122 
DISL,ioos:station:DISL:DISL:1,2014-07-05T01:30:00Z,30.2513,-88.0778,1.864,8.83,1111122 
DISL,ioos:station:DISL:DISL:1,2014-07-05T02:00:00Z,30.2513,-88.0778,1.857,9.4,1111122 
DISL,ioos:station:DISL:DISL:1,2014-07-05T02:30:00Z,30.2513,-88.0778,1.859,8.99,1111122 
DISL,ioos:station:DISL:DISL:1,2014-07-05T03:00:00Z,30.2513,-88.0778,1.857,8.45,1111122 
DISL,ioos:station:DISL:DISL:1,2014-07-05T03:30:00Z,30.2513,-88.0778,1.846,7.81,1111122 
DISL,ioos:station:DISL:DISL:1,2014-07-05T04:00:00Z,30.2513,-88.0778,1.853,7.62,1111122 
DISL,ioos:station:DISL:DISL:1,2014-07-05T04:30:00Z,30.2513,-88.0778,1.851,7.44,1111122 
DISL,ioos:station:DISL:DISL:1,2014-07-05T05:00:00Z,30.2513,-88.0778,1.855,7.35,1111122 
DISL,ioos:station:DISL:DISL:1,2014-07-05T05:30:00Z,30.2513,-88.0778,1.871,7.17,1111122 
DISL,ioos:station:DISL:DISL:1,2014-07-05T06:00:00Z,30.2513,-88.0778,1.87,7.08,1111122 
DISL,ioos:station:DISL:DISL:1,2014-07-05T06:30:00Z,30.2513,-88.0778,1.89,7.07,1111122 
DISL,ioos:station:DISL:DISL:1,2014-07-05T07:00:00Z,30.2513,-88.0778,1.869,6.85,1111122 
DISL,ioos:station:DISL:DISL:1,2014-07-05T07:30:00Z,30.2513,-88.0778,1.886,5.71,1111122 
DISL,ioos:station:DISL:DISL:1,2014-07-05T08:00:00Z,30.2513,-88.0778,1.887,5.36,1111122 
DISL,ioos:station:DISL:DISL:1,2014-07-05T08:30:00Z,30.2513,-88.0778,1.902,5.14,1111122 
DISL,ioos:station:DISL:DISL:1,2014-07-05T09:00:00Z,30.2513,-88.0778,1.919,5.04,1111122 
DISL,ioos:station:DISL:DISL:1,2014-07-05T09:30:00Z,30.2513,-88.0778,1.937,4.67,1111122 
DISL,ioos:station:DISL:DISL:1,2014-07-05T10:00:00Z,30.2513,-88.0778,1.949,4.34,1111122 
DISL,ioos:station:DISL:DISL:1,2014-07-05T10:30:00Z,30.2513,-88.0778,1.959,4.35,1111122 
DISL,ioos:station:DISL:DISL:1,2014-07-05T11:00:00Z,30.2513,-88.0778,1.988,4.56,1111122 
DISL,ioos:station:DISL:DISL:1,2014-07-05T11:30:00Z,30.2513,-88.0778,1.993,4.6,1111122 
DISL,ioos:station:DISL:DISL:1,2014-07-05T12:00:00Z,30.2513,-88.0778,2.034,5.57,1111122 
DISL,ioos:station:DISL:DISL:1,2014-07-05T12:30:00Z,30.2513,-88.0778,2.017,4.88,1111122 
DISL,ioos:station:DISL:DISL:1,2014-07-05T13:00:00Z,30.2513,-88.0778,2.001,5.87,1111122 
DISL,ioos:station:DISL:DISL:1,2014-07-05T13:30:00Z,30.2513,-88.0778,2.012,6.07,1111122 
DISL,ioos:station:DISL:DISL:1,2014-07-05T14:00:00Z,30.2513,-88.0778,2.009,6.14,1111122 
DISL,ioos:station:DISL:DISL:1,2014-07-05T14:30:00Z,30.2513,-88.0778,1.981,6.28,1111122 
DISL,ioos:station:DISL:DISL:1,2014-07-05T15:00:00Z,30.2513,-88.0778,1.993,6.27,1111122 
DISL,ioos:station:DISL:DISL:1,2014-07-05T15:30:00Z,30.2513,-88.0778,1.982,6.11,1111122 
DISL,ioos:station:DISL:DISL:1,2014-07-05T16:00:00Z,30.2513,-88.0778,1.975,6.15,1111122 
DISL,ioos:station:DISL:DISL:1,2014-07-05T16:30:00Z,30.2513,-88.0778,1.975,6.08,1111122 
DISL,ioos:station:DISL:DISL:1,2014-07-05T17:00:00Z,30.2513,-88.0778,1.994,5.94,1111122 
DISL,ioos:station:DISL:DISL:1,2014-07-05T17:30:00Z,30.2513,-88.0778,1.958,6.18,1111122 
DISL,ioos:station:DISL:DISL:1,2014-07-05T18:00:00Z,30.2513,-88.0778,1.956,6.14,1111122 
DISL,ioos:station:DISL:DISL:1,2014-07-05T18:30:00Z,30.2513,-88.0778,1.945,6.44,1111122 
DISL,ioos:station:DISL:DISL:1,2014-07-05T19:00:00Z,30.2513,-88.0778,1.946,6.77,1111122 
DISL,ioos:station:DISL:DISL:1,2014-07-05T19:30:00Z,30.2513,-88.0778,1.938,6.91,1111122 
DISL,ioos:station:DISL:DISL:1,2014-07-05T20:00:00Z,30.2513,-88.0778,1.936,7.07,1111122 
DISL,ioos:station:DISL:DISL:1,2014-07-05T20:30:00Z,30.2513,-88.0778,1.933,7.29,1111122 
DISL,ioos:station:DISL:DISL:1,2014-07-05T21:00:00Z,30.2513,-88.0778,1.9,7.2,1111122 
DISL,ioos:station:DISL:DISL:1,2014-07-05T21:30:00Z,30.2513,-88.0778,1.896,7.6,1111122 
DISL,ioos:station:DISL:DISL:1,2014-07-05T22:00:00Z,30.2513,-88.0778,1.892,7.89,1111122 
DISL,ioos:station:DISL:DISL:1,2014-07-05T22:30:00Z,30.2513,-88.0778,1.9,7.71,1111122 
DISL,ioos:station:DISL:DISL:1,2014-07-05T23:00:00Z,30.2513,-88.0778,1.877,7.6,1111122 
DISL,ioos:station:DISL:DISL:1,2014-07-05T23:30:00Z,30.2513,-88.0778,1.885,7.63,1111122 
DISL,ioos:station:DISL:DISL:1,2014-07-06T00:00:00Z,30.2513,-88.0778,1.882,7.76,1111122 
DISL,ioos:station:DISL:DISL:1,2014-07-06T00:30:00Z,30.2513,-88.0778,1.882,7.77,1111122 
DISL,ioos:station:DISL:DISL:1,2014-07-06T01:00:00Z,30.2513,-88.0778,1.916,7.56,1111122 
DISL,ioos:station:DISL:DISL:1,2014-07-06T01:30:00Z,30.2513,-88.0778,1.908,7.82,1111122 
DISL,ioos:station:DISL:DISL:1,2014-07-06T02:00:00Z,30.2513,-88.0778,1.901,7.58,1111122 
DISL,ioos:station:DISL:DISL:1,2014-07-06T02:30:00Z,30.2513,-88.0778,1.895,7.56,1111122 
DISL,ioos:station:DISL:DISL:1,2014-07-06T03:00:00Z,30.2513,-88.0778,1.893,7.88,1111122 
DISL,ioos:station:DISL:DISL:1,2014-07-06T03:30:00Z,30.2513,-88.0778,1.907,7.38,1111122 
DISL,ioos:station:DISL:DISL:1,2014-07-06T04:00:00Z,30.2513,-88.0778,1.908,7.77,1111122 
DISL,ioos:station:DISL:DISL:1,2014-07-06T04:30:00Z,30.2513,-88.0778,1.904,7.93,1111122 
DISL,ioos:station:DISL:DISL:1,2014-07-06T05:00:00Z,30.2513,-88.0778,1.908,7.32,1111122 
DISL,ioos:station:DISL:DISL:1,2014-07-06T05:30:00Z,30.2513,-88.0778,1.935,6.52,1111122 
DISL,ioos:station:DISL:DISL:1,2014-07-06T06:00:00Z,30.2513,-88.0778,1.932,6.19,1111122 
DISL,ioos:station:DISL:DISL:1,2014-07-06T06:30:00Z,30.2513,-88.0778,1.961,5.88,1111122 
DISL,ioos:station:DISL:DISL:1,2014-07-06T07:00:00Z,30.2513,-88.0778,1.949,5.79,1111122 
DISL,ioos:station:DISL:DISL:1,2014-07-06T07:30:00Z,30.2513,-88.0778,1.964,5.64,1111122 
DISL,ioos:station:DISL:DISL:1,2014-07-06T08:00:00Z,30.2513,-88.0778,1.986,5.63,1111122 
DISL,ioos:station:DISL:DISL:1,2014-07-06T08:30:00Z,30.2513,-88.0778,1.996,5.75,1111122 
DISL,ioos:station:DISL:DISL:1,2014-07-06T09:00:00Z,30.2513,-88.0778,2.008,6.04,1111122 
DISL,ioos:station:DISL:DISL:1,2014-07-06T09:30:00Z,30.2513,-88.0778,2.02,6.14,1111122 
DISL,ioos:station:DISL:DISL:1,2014-07-06T10:00:00Z,30.2513,-88.0778,2.037,6.14,1111122 
DISL,ioos:station:DISL:DISL:1,2014-07-06T10:30:00Z,30.2513,-88.0778,2.062,6.2,1111122 
DISL,ioos:station:DISL:DISL:1,2014-07-06T11:00:00Z,30.2513,-88.0778,2.063,6.1,1111122 
DISL,ioos:station:DISL:DISL:1,2014-07-06T11:30:00Z,30.2513,-88.0778,2.066,6.08,1111122 
DISL,ioos:station:DISL:DISL:1,2014-07-06T12:00:00Z,30.2513,-88.0778,2.077,6.2,1111122 
DISL,ioos:station:DISL:DISL:1,2014-07-06T12:30:00Z,30.2513,-88.0778,2.051,6.26,1111122 
DISL,ioos:station:DISL:DISL:1,2014-07-06T13:00:00Z,30.2513,-88.0778,2.043,5.91,1111122 
DISL,ioos:station:DISL:DISL:1,2014-07-06T13:30:00Z,30.2513,-88.0778,2.053,5.86,1111122 
DISL,ioos:station:DISL:DISL:1,2014-07-06T14:00:00Z,30.2513,-88.0778,2.037,6.13,1111122 
DISL,ioos:station:DISL:DISL:1,2014-07-06T14:30:00Z,30.2513,-88.0778,2.024,6.08,1111122 
DISL,ioos:station:DISL:DISL:1,2014-07-06T15:00:00Z,30.2513,-88.0778,2.007,5.95,1111122 
DISL,ioos:station:DISL:DISL:1,2014-07-06T15:30:00Z,30.2513,-88.0778,1.995,6.25,1111122 